Aeroporto :
LOGIN :

Iscrizione | Disclaimer

   EN    FR    IT 

 










Sommario :    VFR   VFR Marginale   IFR   IFR Intensivo   IFR Molto Intensivo
Visibilità : 
Base nubi : 
>= 8 km
>= 3000ft
5 / 8 km
1000 / 3000 ft
1500m / 5 km
500 / 1000 ft
800 / 1500m
200 / 500 ft
< 800m
< 200 ft
Simboli :   Temporali  Nebbia  Neve Forte  Precipitazioni Forti  Vento > 20 kt
SIGMETs :   Varie  Temporali  Ghiacco  Turbolenza  Onda orograficha  Ceneri Vulcaniche






- Altitudine del aeroporto : 86 ft


LERT - Rota Navy

ULTIMO METAR :
  • 271300Z 27014KT 240V300 9999 FEW032 24/17 Q1014 NOSIG

METARs OBSOLETI :
  • 271230Z 27013KT 240V320 9999 FEW032 23/15 Q1014 NOSIG
  • 271200Z 27013KT 240V300 9999 FEW038 23/16 Q1015 NOSIG
  • 271130Z 28009KT 240V350 9999 FEW038 23/15 Q1015 NOSIG
  • 271100Z 30008KT 240V350 CAVOK 23/15 Q1015 NOSIG
  • 271030Z 31008KT 260V010 CAVOK 23/15 Q1016 NOSIG

TAF TAF LERT
Valido dal 27 a 09 ore il 28 a 09 ore UTC


270800Z 2709/2809 33009KT CAVOK TX25/2713Z TN17/2806Z
BECMG 2712/2714 27010KT
BECMG 2721/2724 08004KT



MetMap, La meteo Aeronautica in un colpo d'occhio ! - Copyright ORBIFLY Dicembre 2007 - Disclaimer

ORBIFLY MET'MAP TEAM :

Programmazione e sviluppo : Alexandra Zaïnal
Concezione : Baudouin d'Aumeries
Aiuto per la programmazione : Marc-Olivier Méhu
Supporto tecnico e logistico : Manuel Goepfert
Aiuto per la traduzione : Arnaldo La Scala

Contatto : metmap@orbifly.com




FONTI E CREDITI :

   NOAA